Time,TemperatureF,DewpointF,PressureIn,WindDirection,WindDirectionDegrees,WindSpeedMPH,WindSpeedGustMPH,Humidity,HourlyPrecipIn,Conditions,Clouds,dailyrainin,SolarRadiationWatts/m^2,SoftwareType,DateUTC
2013-01-14 00:04:00,46.0,46.0,-100.00,SW,233,3.0,6.0,100,0.00,,,0.01,0.000000,,2013-01-14 05:04:00,
2013-01-14 00:10:00,46.0,46.0,-100.00,SE,146,4.0,6.0,100,0.00,,,0.01,0.000000,,2013-01-14 05:10:00,
2013-01-14 00:33:00,46.0,46.0,-100.00,SE,146,4.0,6.0,100,0.00,,,0.01,0.000000,,2013-01-14 05:33:00,
2013-01-14 00:43:00,46.0,46.0,-100.00,SE,146,4.0,6.0,100,0.00,,,0.01,0.000000,,2013-01-14 05:43:00,
2013-01-14 00:53:00,46.0,46.0,-100.00,SE,146,4.0,6.0,100,0.00,,,0.01,0.000000,,2013-01-14 05:53:00,
2013-01-14 01:03:00,46.0,46.0,-100.00,SE,146,4.0,6.0,100,0.00,,,0.01,0.000000,,2013-01-14 06:03:00,
2013-01-14 01:10:00,46.0,46.0,-100.00,SSE,156,3.0,7.0,100,0.00,,,0.01,0.000000,,2013-01-14 06:10:00,
2013-01-14 01:33:00,46.0,46.0,-100.00,SSE,156,3.0,7.0,100,0.00,,,0.01,0.000000,,2013-01-14 06:33:00,
2013-01-14 01:43:00,46.0,46.0,-100.00,SSE,156,3.0,7.0,100,0.00,,,0.01,0.000000,,2013-01-14 06:43:00,
2013-01-14 01:53:00,46.0,46.0,-100.00,SSE,156,3.0,7.0,100,0.00,,,0.01,0.000000,,2013-01-14 06:53:00,
2013-01-14 02:02:00,46.0,46.0,-100.00,SSE,156,3.0,7.0,100,0.00,,,0.01,0.000000,,2013-01-14 07:02:00,
2013-01-14 02:10:00,46.0,46.0,-100.00,SE,144,4.0,6.0,100,0.00,,,0.01,0.000000,,2013-01-14 07:10:00,
2013-01-14 02:33:00,46.0,46.0,-100.00,SE,144,4.0,6.0,100,0.00,,,0.01,0.000000,,2013-01-14 07:33:00,
2013-01-14 02:43:00,46.0,46.0,-100.00,SE,144,4.0,6.0,100,0.00,,,0.01,0.000000,,2013-01-14 07:43:00,
2013-01-14 02:53:00,46.0,46.0,-100.00,SE,144,4.0,6.0,100,0.00,,,0.01,0.000000,,2013-01-14 07:53:00,
2013-01-14 03:02:00,46.0,46.0,-100.00,SE,144,4.0,6.0,100,0.00,,,0.01,0.000000,,2013-01-14 08:02:00,
2013-01-14 03:10:00,46.0,46.0,-100.00,SE,141,3.0,7.0,100,0.01,,,0.02,0.000000,,2013-01-14 08:10:00,
2013-01-14 03:33:00,46.0,46.0,-100.00,SE,141,3.0,7.0,100,0.01,,,0.02,0.000000,,2013-01-14 08:33:00,
2013-01-14 03:43:00,46.0,46.0,-100.00,SE,141,3.0,7.0,100,0.01,,,0.02,0.000000,,2013-01-14 08:43:00,
2013-01-14 03:53:00,46.0,46.0,-100.00,SE,141,3.0,7.0,100,0.01,,,0.02,0.000000,,2013-01-14 08:53:00,
2013-01-14 04:03:00,46.0,46.0,-100.00,SE,141,3.0,7.0,100,0.01,,,0.02,0.000000,,2013-01-14 09:03:00,
2013-01-14 04:10:00,47.0,47.0,-100.00,NW,321,4.0,7.0,100,0.00,,,0.02,0.000000,,2013-01-14 09:10:00,
2013-01-14 04:34:00,47.0,47.0,-100.00,NW,321,4.0,7.0,100,0.00,,,0.02,0.000000,,2013-01-14 09:34:00,
2013-01-14 04:43:00,47.0,47.0,-100.00,NW,321,4.0,7.0,100,0.00,,,0.02,0.000000,,2013-01-14 09:43:00,
2013-01-14 04:53:00,47.0,47.0,-100.00,NW,321,4.0,7.0,100,0.00,,,0.02,0.000000,,2013-01-14 09:53:00,
2013-01-14 05:02:00,47.0,47.0,-100.00,NW,321,4.0,7.0,100,0.00,,,0.02,0.000000,,2013-01-14 10:02:00,
2013-01-14 05:10:00,46.0,46.0,-100.00,ESE,116,7.0,9.0,100,0.00,,,0.02,0.000000,,2013-01-14 10:10:00,
2013-01-14 05:33:00,46.0,46.0,-100.00,ESE,116,7.0,9.0,100,0.00,,,0.02,0.000000,,2013-01-14 10:33:00,
2013-01-14 05:43:00,46.0,46.0,-100.00,ESE,116,7.0,9.0,100,0.00,,,0.02,0.000000,,2013-01-14 10:43:00,
2013-01-14 05:53:00,46.0,46.0,-100.00,ESE,116,7.0,9.0,100,0.00,,,0.02,0.000000,,2013-01-14 10:53:00,
2013-01-14 06:02:00,46.0,46.0,-100.00,ESE,116,7.0,9.0,100,0.00,,,0.02,0.000000,,2013-01-14 11:02:00,
2013-01-14 06:10:00,48.0,48.0,-100.00,WNW,285,6.0,13.0,100,0.00,,,0.02,0.000000,,2013-01-14 11:10:00,
2013-01-14 06:43:00,48.0,48.0,-100.00,WNW,285,6.0,13.0,100,0.00,,,0.02,0.000000,,2013-01-14 11:43:00,
2013-01-14 06:53:00,48.0,48.0,-100.00,WNW,285,6.0,13.0,100,0.00,,,0.02,0.000000,,2013-01-14 11:53:00,
2013-01-14 07:03:00,48.0,48.0,-100.00,WNW,285,6.0,13.0,100,0.00,,,0.02,0.000000,,2013-01-14 12:03:00,
2013-01-14 07:10:00,47.0,47.0,-100.00,West,272,4.0,9.0,100,0.00,,,0.02,0.000000,,2013-01-14 12:10:00,
2013-01-14 07:33:00,47.0,47.0,-100.00,West,272,4.0,9.0,100,0.00,,,0.02,0.000000,,2013-01-14 12:33:00,
2013-01-14 07:43:00,47.0,47.0,-100.00,West,272,4.0,9.0,100,0.00,,,0.02,0.000000,,2013-01-14 12:43:00,
2013-01-14 07:53:00,47.0,47.0,-100.00,West,272,4.0,9.0,100,0.00,,,0.02,0.000000,,2013-01-14 12:53:00,
2013-01-14 08:03:00,47.0,47.0,-100.00,West,272,4.0,9.0,100,0.00,,,0.02,0.000000,,2013-01-14 13:03:00,
2013-01-14 08:10:00,48.0,48.0,-100.00,WNW,285,4.0,10.0,100,0.00,,,0.02,4.000000,,2013-01-14 13:10:00,
2013-01-14 08:34:00,48.0,48.0,-100.00,WNW,285,4.0,10.0,100,0.00,,,0.02,4.000000,,2013-01-14 13:34:00,
2013-01-14 08:43:00,48.0,48.0,-100.00,WNW,285,4.0,10.0,100,0.00,,,0.02,4.000000,,2013-01-14 13:43:00,
2013-01-14 08:53:00,48.0,48.0,-100.00,WNW,285,4.0,10.0,100,0.00,,,0.02,4.000000,,2013-01-14 13:53:00,
2013-01-14 09:03:00,48.0,48.0,-100.00,WNW,285,4.0,10.0,100,0.00,,,0.02,4.000000,,2013-01-14 14:03:00,
2013-01-14 09:10:00,49.0,49.0,-100.00,West,274,5.0,14.0,100,0.00,,,0.02,41.000000,,2013-01-14 14:10:00,
2013-01-14 09:33:00,49.0,49.0,-100.00,West,274,5.0,14.0,100,0.00,,,0.02,41.000000,,2013-01-14 14:33:00,
2013-01-14 09:43:00,49.0,49.0,-100.00,West,274,5.0,14.0,100,0.00,,,0.02,41.000000,,2013-01-14 14:43:00,
2013-01-14 09:53:00,49.0,49.0,-100.00,West,274,5.0,14.0,100,0.00,,,0.02,41.000000,,2013-01-14 14:53:00,
2013-01-14 10:03:00,49.0,49.0,-100.00,West,274,5.0,14.0,100,0.00,,,0.02,41.000000,,2013-01-14 15:03:00,
2013-01-14 10:10:00,49.0,49.0,-100.00,West,268,5.0,11.0,100,0.00,,,0.02,127.000000,,2013-01-14 15:10:00,
2013-01-14 10:34:00,49.0,49.0,-100.00,West,268,5.0,11.0,100,0.00,,,0.02,127.000000,,2013-01-14 15:34:00,
2013-01-14 10:43:00,49.0,49.0,-100.00,West,268,5.0,11.0,100,0.00,,,0.02,127.000000,,2013-01-14 15:43:00,
2013-01-14 10:53:00,49.0,49.0,-100.00,West,268,5.0,11.0,100,0.00,,,0.02,127.000000,,2013-01-14 15:53:00,
2013-01-14 11:03:00,49.0,49.0,-100.00,West,268,5.0,11.0,100,0.00,,,0.02,127.000000,,2013-01-14 16:03:00,
2013-01-14 11:10:00,50.0,50.0,-100.00,WNW,296,5.0,10.0,100,0.00,,,0.02,177.000000,,2013-01-14 16:10:00,
2013-01-14 11:33:00,50.0,50.0,-100.00,WNW,296,5.0,10.0,100,0.00,,,0.02,177.000000,,2013-01-14 16:33:00,
2013-01-14 11:43:00,50.0,50.0,-100.00,WNW,296,5.0,10.0,100,0.00,,,0.02,177.000000,,2013-01-14 16:43:00,
2013-01-14 11:53:00,50.0,50.0,-100.00,WNW,296,5.0,10.0,100,0.00,,,0.02,177.000000,,2013-01-14 16:53:00,
2013-01-14 12:03:00,50.0,50.0,-100.00,WNW,296,5.0,10.0,100,0.00,,,0.02,177.000000,,2013-01-14 17:03:00,
2013-01-14 12:10:00,50.0,50.0,-100.00,NNW,328,6.0,16.0,100,0.00,,,0.02,225.000000,,2013-01-14 17:10:00,
2013-01-14 12:34:00,50.0,50.0,-100.00,NNW,328,6.0,16.0,100,0.00,,,0.02,225.000000,,2013-01-14 17:34:00,
2013-01-14 12:43:00,50.0,50.0,-100.00,NNW,328,6.0,16.0,100,0.00,,,0.02,225.000000,,2013-01-14 17:43:00,
2013-01-14 12:54:00,50.0,50.0,-100.00,NNW,328,6.0,16.0,100,0.00,,,0.02,225.000000,,2013-01-14 17:54:00,
2013-01-14 13:03:00,50.0,50.0,-100.00,NNW,328,6.0,16.0,100,0.00,,,0.02,225.000000,,2013-01-14 18:03:00,
2013-01-14 13:10:00,51.0,47.0,-100.00,NW,310,7.0,18.0,87,0.00,,,0.02,288.000000,,2013-01-14 18:10:00,
2013-01-14 13:33:00,51.0,47.0,-100.00,NW,310,7.0,18.0,87,0.00,,,0.02,288.000000,,2013-01-14 18:33:00,
2013-01-14 13:43:00,51.0,47.0,-100.00,NW,310,7.0,18.0,87,0.00,,,0.02,288.000000,,2013-01-14 18:43:00,
2013-01-14 13:53:00,51.0,47.0,-100.00,NW,310,7.0,18.0,87,0.00,,,0.02,288.000000,,2013-01-14 18:53:00,
2013-01-14 14:03:00,51.0,47.0,-100.00,NW,310,7.0,18.0,87,0.00,,,0.02,288.000000,,2013-01-14 19:03:00,
2013-01-14 14:10:00,49.0,39.0,-100.00,NW,321,8.0,17.0,68,0.00,,,0.02,177.000000,,2013-01-14 19:10:00,
2013-01-14 14:43:00,49.0,39.0,-100.00,NW,321,8.0,17.0,68,0.00,,,0.02,177.000000,,2013-01-14 19:43:00,
2013-01-14 14:53:00,49.0,39.0,-100.00,NW,321,8.0,17.0,68,0.00,,,0.02,177.000000,,2013-01-14 19:53:00,
2013-01-14 15:04:00,49.0,39.0,-100.00,NW,321,8.0,17.0,68,0.00,,,0.02,177.000000,,2013-01-14 20:04:00,
2013-01-14 15:10:00,49.0,36.0,-100.00,NNW,331,8.0,15.0,60,0.00,,,0.02,166.000000,,2013-01-14 20:10:00,
2013-01-14 15:33:00,49.0,36.0,-100.00,NNW,331,8.0,15.0,60,0.00,,,0.02,166.000000,,2013-01-14 20:33:00,
2013-01-14 15:43:00,49.0,36.0,-100.00,NNW,331,8.0,15.0,60,0.00,,,0.02,166.000000,,2013-01-14 20:43:00,
2013-01-14 15:53:00,49.0,36.0,-100.00,NNW,331,8.0,15.0,60,0.00,,,0.02,166.000000,,2013-01-14 20:53:00,
2013-01-14 16:03:00,49.0,36.0,-100.00,NNW,331,8.0,15.0,60,0.00,,,0.02,166.000000,,2013-01-14 21:03:00,
2013-01-14 16:10:00,48.0,33.0,-100.00,NNW,327,8.0,12.0,55,0.00,,,0.02,60.000000,,2013-01-14 21:10:00,
2013-01-14 16:33:00,48.0,33.0,-100.00,NNW,327,8.0,12.0,55,0.00,,,0.02,60.000000,,2013-01-14 21:33:00,
2013-01-14 16:43:00,48.0,33.0,-100.00,NNW,327,8.0,12.0,55,0.00,,,0.02,60.000000,,2013-01-14 21:43:00,
2013-01-14 16:53:00,48.0,33.0,-100.00,NNW,327,8.0,12.0,55,0.00,,,0.02,60.000000,,2013-01-14 21:53:00,
2013-01-14 17:03:00,48.0,33.0,-100.00,NNW,327,8.0,12.0,55,0.00,,,0.02,60.000000,,2013-01-14 22:03:00,
2013-01-14 17:10:00,45.0,33.0,-100.00,North,7,7.0,14.0,63,0.00,,,-99.99,15.000000,,2013-01-14 22:10:00,
2013-01-14 17:33:00,45.0,33.0,-100.00,North,7,7.0,14.0,63,0.00,,,-99.99,15.000000,,2013-01-14 22:33:00,
2013-01-14 17:43:00,45.0,33.0,-100.00,North,7,7.0,14.0,63,0.00,,,-99.99,15.000000,,2013-01-14 22:43:00,
2013-01-14 17:53:00,45.0,33.0,-100.00,North,7,7.0,14.0,63,0.00,,,-99.99,15.000000,,2013-01-14 22:53:00,
2013-01-14 18:03:00,45.0,33.0,-100.00,North,7,7.0,14.0,63,0.00,,,-99.99,15.000000,,2013-01-14 23:03:00,
2013-01-14 18:10:00,44.0,30.0,-100.00,NNE,19,7.0,14.0,58,0.00,,,0.01,0.000000,,2013-01-14 23:10:00,
2013-01-14 18:33:00,44.0,30.0,-100.00,NNE,19,7.0,14.0,58,0.00,,,0.01,0.000000,,2013-01-14 23:33:00,
2013-01-14 18:43:00,44.0,30.0,-100.00,NNE,19,7.0,14.0,58,0.00,,,0.01,0.000000,,2013-01-14 23:43:00,
2013-01-14 18:53:00,44.0,30.0,-100.00,NNE,19,7.0,14.0,58,0.00,,,0.01,0.000000,,2013-01-14 23:53:00,
2013-01-14 19:03:00,44.0,30.0,-100.00,NNE,19,7.0,14.0,58,0.00,,,0.01,0.000000,,2013-01-15 00:03:00,
2013-01-14 19:10:00,43.0,30.0,-100.00,NNW,331,7.0,12.0,59,0.00,,,0.01,0.000000,,2013-01-15 00:10:00,
2013-01-14 19:33:00,43.0,30.0,-100.00,NNW,331,7.0,12.0,59,0.00,,,0.01,0.000000,,2013-01-15 00:33:00,
2013-01-14 19:43:00,43.0,30.0,-100.00,NNW,331,7.0,12.0,59,0.00,,,0.01,0.000000,,2013-01-15 00:43:00,
2013-01-14 19:53:00,43.0,30.0,-100.00,NNW,331,7.0,12.0,59,0.00,,,0.01,0.000000,,2013-01-15 00:53:00,
2013-01-14 20:02:00,43.0,30.0,-100.00,NNW,331,7.0,12.0,59,0.00,,,0.01,0.000000,,2013-01-15 01:02:00,
2013-01-14 21:10:00,38.0,29.0,-100.00,NNW,347,6.0,14.0,71,-99.99,,,0.04,0.000000,,2013-01-15 02:10:00,
2013-01-14 21:33:00,38.0,29.0,-100.00,NNW,347,6.0,14.0,71,-99.99,,,0.04,0.000000,,2013-01-15 02:33:00,
2013-01-14 21:43:00,38.0,29.0,-100.00,NNW,347,6.0,14.0,71,-99.99,,,0.04,0.000000,,2013-01-15 02:43:00,
2013-01-14 21:53:00,38.0,29.0,-100.00,NNW,347,6.0,14.0,71,-99.99,,,0.04,0.000000,,2013-01-15 02:53:00,
2013-01-14 22:03:00,38.0,29.0,-100.00,NNW,347,6.0,14.0,71,-99.99,,,0.04,0.000000,,2013-01-15 03:03:00,
2013-01-14 22:10:00,36.0,31.0,-100.00,NNW,343,6.0,11.0,82,0.04,,,0.08,0.000000,,2013-01-15 03:10:00,
2013-01-14 22:33:00,36.0,31.0,-100.00,NNW,343,6.0,11.0,82,0.04,,,0.08,0.000000,,2013-01-15 03:33:00,
2013-01-14 22:43:00,36.0,31.0,-100.00,NNW,343,6.0,11.0,82,0.04,,,0.08,0.000000,,2013-01-15 03:43:00,
2013-01-14 22:53:00,36.0,31.0,-100.00,NNW,343,6.0,11.0,82,0.04,,,0.08,0.000000,,2013-01-15 03:53:00,
2013-01-14 23:03:00,36.0,31.0,-100.00,NNW,343,6.0,11.0,82,0.04,,,0.08,0.000000,,2013-01-15 04:03:00,
2013-01-14 23:10:00,35.0,29.0,-100.00,North,349,9.0,14.0,80,0.00,,,0.08,0.000000,,2013-01-15 04:10:00,
2013-01-14 23:33:00,35.0,29.0,-100.00,North,349,9.0,14.0,80,0.00,,,0.08,0.000000,,2013-01-15 04:33:00,
2013-01-14 23:43:00,35.0,29.0,-100.00,North,349,9.0,14.0,80,0.00,,,0.08,0.000000,,2013-01-15 04:43:00,
2013-01-14 23:52:00,35.0,29.0,-100.00,North,349,9.0,14.0,80,0.00,,,0.08,0.000000,,2013-01-15 04:52:00,